Regional Weather Roundup
Issued by NWS Albany, NY

Home | Current Version | Previous Version | Graphics & Text | Print | Product List | Glossary Off
Versions: 1 2 3 4 5 6 7 8 9 10 11 12 13 14 15 16 17 18 19 20 21 22 23 24 25 26 27 28 29 30 31 32 33 34 35 36 37 38 39 40 41 42 43 44 45 46 47 48 49 50

000
ASUS41 KALY 300010
RWRALY

NEW YORK STATE HOURLY WEATHER ROUNDUP
NATIONAL WEATHER SERVICE ALBANY NY
800 PM EDT SUN MAR 29 2015

NOTE: "FAIR" INDICATES FEW OR NO CLOUDS BELOW 12,000 FEET WITH NO
SIGNIFICANT WEATHER AND/OR NO OBSTRUCTIONS TO VISIBILITY.

NYZ032-033-038>043-046>054-057>066-NYZ062>081-300100-
EAST


CITY           SKY/WX    TMP DP  RH WIND       PRES   REMARKS
ALBANY         PTCLDY    34  10  37 CALM      30.10F
GLENS FALLS    CLEAR     35  12  38 S8        30.06F WCI  29
POUGHKEEPSIE   CLEAR     39   7  26 S3        30.11F
MONTGOMERY     CLEAR     36  14  40 CALM      30.09F
WHITE PLAINS   CLEAR     35  12  38 CALM      30.13S
ISLIP          PTCLDY    37  17  44 SW10      30.15F WCI  30
NEW YORK CITY  PTCLDY    40  18  41 S14       30.16S WCI  32
CENTRAL PARK   CLEAR     45   1  16 W6        30.17F
$$

NYZ005>009-017-018-044>046-055-056-300100-
CENTRAL


CITY           SKY/WX    TMP DP  RH WIND       PRES   REMARKS
FULTON         PTCLDY    35  10  35 SE6       29.99F WCI  30
SYRACUSE       CLOUDY    35  12  38 E7        30.01F WCI  29
ROME           CLEAR     32   9  38 E5        30.05F WCI  27
ELMIRA         MOCLDY    39   8  27 SW8       30.01S WCI  33
BINGHAMTON     CLEAR     34   7  32 S7        29.99F WCI  28
MONTICELLO     CLEAR     32   9  37 CALM      30.07F
$$

NYZ026>034-041>043-300100-
NORTH


CITY           SKY/WX    TMP DP  RH WIND       PRES   REMARKS
WATERTOWN      PTCLDY    35  12  38 SE5       29.98F WCI  31
FORT DRUM      NOT AVBL
MASSENA        PTCLDY    31  12  45 SW7       30.00F WCI  24
SARANAC LAKE   CLEAR     28   9  44 SW5       29.91F WCI  23
PLATTSBURGH    CLEAR     36  11  35 S6        30.00F WCI  31
$$

NYZ001>004-010>016-019>021-300100-
WEST


CITY           SKY/WX    TMP DP  RH WIND       PRES   REMARKS
NIAGARA FALLS  CLOUDY    37  17  44 S10       29.89F WCI  30
BUFFALO        CLOUDY    41  14  33 S16       29.90F
DUNKIRK        CLOUDY    41  14  33 S12G25    29.90F
JAMESTOWN      CLOUDY    37  10  32 S18       29.91F WCI  27
WELLSVILLE     CLOUDY    36   7  29 S12G20    29.95F WCI  28
ROCHESTER      CLOUDY    42  12  29 S7        29.94F
PENN YAN       MOCLDY    39  11  31 S8        29.97F WCI  33
$$

             KEY
       WCI = WIND CHILL INDEX
       VSB = VISIBILITY
       HX  = HEAT INDEX
$$



USA.gov is the U.S. government's official web portal to all federal, state and local government web resources and services.